Time,TemperatureF,DewpointF,PressureIn,WindDirection,WindDirectionDegrees,WindSpeedMPH,WindSpeedGustMPH,Humidity,HourlyPrecipIn,Conditions,Clouds,dailyrainin,SoftwareType,DateUTC
2013-10-14 00:02:00,45.0,40.0,-100.00,South,169,4.0,6.0,80,0.00,,,-99.99,,2013-10-14 08:02:00,
2013-10-14 00:12:00,45.0,40.0,-100.00,South,169,4.0,6.0,80,0.00,,,-99.99,,2013-10-14 08:12:00,
2013-10-14 00:21:00,45.0,40.0,-100.00,South,169,4.0,6.0,80,0.00,,,-99.99,,2013-10-14 08:21:00,
2013-10-14 00:30:00,45.0,40.0,-100.00,East,100,5.0,8.0,82,0.00,,,-99.99,,2013-10-14 08:30:00,
2013-10-14 00:52:00,45.0,40.0,-100.00,East,100,5.0,8.0,82,0.00,,,-99.99,,2013-10-14 08:52:00,
2013-10-14 01:01:00,45.0,40.0,-100.00,East,100,5.0,8.0,82,0.00,,,-99.99,,2013-10-14 09:01:00,
2013-10-14 01:11:00,45.0,40.0,-100.00,East,100,5.0,8.0,82,0.00,,,-99.99,,2013-10-14 09:11:00,
2013-10-14 01:22:00,45.0,40.0,-100.00,East,100,5.0,8.0,82,0.00,,,-99.99,,2013-10-14 09:22:00,
2013-10-14 01:30:00,46.0,40.0,-100.00,South,179,3.0,5.0,81,0.00,,,-99.99,,2013-10-14 09:30:00,
2013-10-14 01:53:00,46.0,40.0,-100.00,South,179,3.0,5.0,81,0.00,,,-99.99,,2013-10-14 09:53:00,
2013-10-14 02:03:00,46.0,40.0,-100.00,South,179,3.0,5.0,81,0.00,,,-99.99,,2013-10-14 10:03:00,
2013-10-14 02:12:00,46.0,40.0,-100.00,South,179,3.0,5.0,81,0.00,,,-99.99,,2013-10-14 10:12:00,
2013-10-14 02:22:00,46.0,40.0,-100.00,South,179,3.0,5.0,81,0.00,,,-99.99,,2013-10-14 10:22:00,
2013-10-14 02:30:00,45.0,41.0,-100.00,NE,42,5.0,8.0,85,0.00,,,-99.99,,2013-10-14 10:30:00,
2013-10-14 02:53:00,45.0,41.0,-100.00,NE,42,5.0,8.0,85,0.00,,,-99.99,,2013-10-14 10:53:00,
2013-10-14 03:02:00,45.0,41.0,-100.00,NE,42,5.0,8.0,85,0.00,,,-99.99,,2013-10-14 11:02:00,
2013-10-14 03:11:00,45.0,41.0,-100.00,NE,42,5.0,8.0,85,0.00,,,-99.99,,2013-10-14 11:11:00,
2013-10-14 03:22:00,45.0,41.0,-100.00,NE,42,5.0,8.0,85,0.00,,,-99.99,,2013-10-14 11:22:00,
2013-10-14 03:30:00,45.0,41.0,-100.00,ESE,115,3.0,4.0,85,0.00,,,-99.99,,2013-10-14 11:30:00,
2013-10-14 03:52:00,45.0,41.0,-100.00,ESE,115,3.0,4.0,85,0.00,,,-99.99,,2013-10-14 11:52:00,
2013-10-14 04:02:00,45.0,41.0,-100.00,ESE,115,3.0,4.0,85,0.00,,,-99.99,,2013-10-14 12:02:00,
2013-10-14 04:12:00,45.0,41.0,-100.00,ESE,115,3.0,4.0,85,0.00,,,-99.99,,2013-10-14 12:12:00,
2013-10-14 04:22:00,45.0,41.0,-100.00,ESE,115,3.0,4.0,85,0.00,,,-99.99,,2013-10-14 12:22:00,
2013-10-14 04:30:00,45.0,40.0,-100.00,East,93,7.0,10.0,83,0.00,,,-99.99,,2013-10-14 12:30:00,
2013-10-14 04:52:00,45.0,40.0,-100.00,East,93,7.0,10.0,83,0.00,,,-99.99,,2013-10-14 12:52:00,
2013-10-14 05:02:00,45.0,40.0,-100.00,East,93,7.0,10.0,83,0.00,,,-99.99,,2013-10-14 13:02:00,
2013-10-14 05:11:00,45.0,40.0,-100.00,East,93,7.0,10.0,83,0.00,,,-99.99,,2013-10-14 13:11:00,
2013-10-14 05:21:00,45.0,40.0,-100.00,East,93,7.0,10.0,83,0.00,,,-99.99,,2013-10-14 13:21:00,
2013-10-14 05:30:00,45.0,40.0,-100.00,NE,46,6.0,7.0,83,0.01,,,-99.99,,2013-10-14 13:30:00,
2013-10-14 05:52:00,45.0,40.0,-100.00,NE,46,6.0,7.0,83,0.01,,,-99.99,,2013-10-14 13:52:00,
2013-10-14 06:02:00,45.0,40.0,-100.00,NE,46,6.0,7.0,83,0.01,,,-99.99,,2013-10-14 14:02:00,
2013-10-14 06:11:00,45.0,40.0,-100.00,NE,46,6.0,7.0,83,0.01,,,-99.99,,2013-10-14 14:11:00,
2013-10-14 06:22:00,45.0,40.0,-100.00,NE,46,6.0,7.0,83,0.01,,,-99.99,,2013-10-14 14:22:00,
2013-10-14 06:30:00,44.0,40.0,-100.00,ENE,67,6.0,7.0,86,0.00,,,-99.99,,2013-10-14 14:30:00,
2013-10-14 06:52:00,44.0,40.0,-100.00,ENE,67,6.0,7.0,86,0.00,,,-99.99,,2013-10-14 14:52:00,
2013-10-14 07:01:00,44.0,40.0,-100.00,ENE,67,6.0,7.0,86,0.00,,,-99.99,,2013-10-14 15:01:00,
2013-10-14 07:11:00,44.0,40.0,-100.00,ENE,67,6.0,7.0,86,0.00,,,-99.99,,2013-10-14 15:11:00,
2013-10-14 07:21:00,44.0,40.0,-100.00,ENE,67,6.0,7.0,86,0.00,,,-99.99,,2013-10-14 15:21:00,
2013-10-14 07:30:00,44.0,40.0,-100.00,ENE,69,6.0,8.0,85,0.00,,,-99.99,,2013-10-14 15:30:00,
2013-10-14 07:54:00,44.0,40.0,-100.00,ENE,69,6.0,8.0,85,0.00,,,-99.99,,2013-10-14 15:54:00,
2013-10-14 08:03:00,44.0,40.0,-100.00,ENE,69,6.0,8.0,85,0.00,,,-99.99,,2013-10-14 16:03:00,
2013-10-14 08:13:00,44.0,40.0,-100.00,ENE,69,6.0,8.0,85,0.00,,,-99.99,,2013-10-14 16:13:00,
2013-10-14 08:23:00,44.0,40.0,-100.00,ENE,69,6.0,8.0,85,0.00,,,-99.99,,2013-10-14 16:23:00,
2013-10-14 08:30:00,45.0,41.0,-100.00,NE,40,5.0,6.0,87,0.00,,,-99.99,,2013-10-14 16:30:00,
2013-10-14 08:53:00,45.0,41.0,-100.00,NE,40,5.0,6.0,87,0.00,,,-99.99,,2013-10-14 16:53:00,
2013-10-14 09:02:00,45.0,41.0,-100.00,NE,40,5.0,6.0,87,0.00,,,-99.99,,2013-10-14 17:02:00,
2013-10-14 09:11:00,45.0,41.0,-100.00,NE,40,5.0,6.0,87,0.00,,,-99.99,,2013-10-14 17:11:00,
2013-10-14 09:22:00,45.0,41.0,-100.00,NE,40,5.0,6.0,87,0.00,,,-99.99,,2013-10-14 17:22:00,
2013-10-14 09:30:00,44.0,41.0,-100.00,North,11,4.0,5.0,87,0.00,,,-99.99,,2013-10-14 17:30:00,
2013-10-14 09:52:00,44.0,41.0,-100.00,North,11,4.0,5.0,87,0.00,,,-99.99,,2013-10-14 17:52:00,
2013-10-14 10:01:00,44.0,41.0,-100.00,North,11,4.0,5.0,87,0.00,,,-99.99,,2013-10-14 18:01:00,
2013-10-14 10:12:00,44.0,41.0,-100.00,North,11,4.0,5.0,87,0.00,,,-99.99,,2013-10-14 18:12:00,
2013-10-14 10:22:00,44.0,41.0,-100.00,North,11,4.0,5.0,87,0.00,,,-99.99,,2013-10-14 18:22:00,
2013-10-14 10:30:00,45.0,40.0,-100.00,NE,41,4.0,5.0,85,0.00,,,-99.99,,2013-10-14 18:30:00,
2013-10-14 10:52:00,45.0,40.0,-100.00,NE,41,4.0,5.0,85,0.00,,,-99.99,,2013-10-14 18:52:00,
2013-10-14 11:02:00,45.0,40.0,-100.00,NE,41,4.0,5.0,85,0.00,,,-99.99,,2013-10-14 19:02:00,
2013-10-14 11:11:00,45.0,40.0,-100.00,NE,41,4.0,5.0,85,0.00,,,-99.99,,2013-10-14 19:11:00,
2013-10-14 11:21:00,45.0,40.0,-100.00,NE,41,4.0,5.0,85,0.00,,,-99.99,,2013-10-14 19:21:00,
2013-10-14 11:30:00,45.0,41.0,-100.00,NNW,347,3.0,4.0,85,0.00,,,-99.99,,2013-10-14 19:30:00,
2013-10-14 11:52:00,45.0,41.0,-100.00,NNW,347,3.0,4.0,85,0.00,,,-99.99,,2013-10-14 19:52:00,
2013-10-14 12:02:00,45.0,41.0,-100.00,NNW,347,3.0,4.0,85,0.00,,,-99.99,,2013-10-14 20:02:00,
2013-10-14 12:11:00,45.0,41.0,-100.00,NNW,347,3.0,4.0,85,0.00,,,-99.99,,2013-10-14 20:11:00,
2013-10-14 12:22:00,45.0,41.0,-100.00,NNW,347,3.0,4.0,85,0.00,,,-99.99,,2013-10-14 20:22:00,
2013-10-14 12:30:00,46.0,42.0,-100.00,SE,134,1.0,4.0,85,0.00,,,-99.99,,2013-10-14 20:30:00,
2013-10-14 12:52:00,46.0,42.0,-100.00,SE,134,1.0,4.0,85,0.00,,,-99.99,,2013-10-14 20:52:00,
2013-10-14 13:02:00,46.0,42.0,-100.00,SE,134,1.0,4.0,85,0.00,,,-99.99,,2013-10-14 21:02:00,
2013-10-14 13:12:00,46.0,42.0,-100.00,SE,134,1.0,4.0,85,0.00,,,-99.99,,2013-10-14 21:12:00,
2013-10-14 13:21:00,46.0,42.0,-100.00,SE,134,1.0,4.0,85,0.00,,,-99.99,,2013-10-14 21:21:00,
2013-10-14 13:30:00,48.0,40.0,-100.00,South,185,8.0,16.0,74,0.00,,,-99.99,,2013-10-14 21:30:00,
2013-10-14 13:55:00,48.0,40.0,-100.00,South,185,8.0,16.0,74,0.00,,,-99.99,,2013-10-14 21:55:00,
2013-10-14 14:04:00,48.0,40.0,-100.00,South,185,8.0,16.0,74,0.00,,,-99.99,,2013-10-14 22:04:00,
2013-10-14 14:13:00,48.0,40.0,-100.00,South,185,8.0,16.0,74,0.00,,,-99.99,,2013-10-14 22:13:00,
2013-10-14 14:24:00,48.0,40.0,-100.00,South,185,8.0,16.0,74,0.00,,,-99.99,,2013-10-14 22:24:00,
2013-10-14 14:30:00,49.0,39.0,-100.00,South,180,11.0,19.0,70,0.00,,,-99.99,,2013-10-14 22:30:00,
2013-10-14 14:54:00,49.0,39.0,-100.00,South,180,11.0,19.0,70,0.00,,,-99.99,,2013-10-14 22:54:00,
2013-10-14 15:03:00,49.0,39.0,-100.00,South,180,11.0,19.0,70,0.00,,,-99.99,,2013-10-14 23:03:00,
2013-10-14 15:12:00,49.0,39.0,-100.00,South,180,11.0,19.0,70,0.00,,,-99.99,,2013-10-14 23:12:00,
2013-10-14 15:22:00,49.0,39.0,-100.00,South,180,11.0,19.0,70,0.00,,,-99.99,,2013-10-14 23:22:00,
2013-10-14 15:30:00,48.0,40.0,-100.00,South,178,9.0,13.0,73,0.00,,,-99.99,,2013-10-14 23:30:00,
2013-10-14 15:52:00,48.0,40.0,-100.00,South,178,9.0,13.0,73,0.00,,,-99.99,,2013-10-14 23:52:00,
2013-10-14 16:02:00,48.0,40.0,-100.00,South,178,9.0,13.0,73,0.00,,,-99.99,,2013-10-15 00:02:00,
2013-10-14 16:11:00,48.0,40.0,-100.00,South,178,9.0,13.0,73,0.00,,,-99.99,,2013-10-15 00:11:00,
2013-10-14 16:22:00,48.0,40.0,-100.00,South,178,9.0,13.0,73,0.00,,,-99.99,,2013-10-15 00:22:00,
2013-10-14 16:30:00,48.0,40.0,-100.00,South,190,4.0,11.0,72,0.00,,,-99.99,,2013-10-15 00:30:00,
2013-10-14 16:52:00,48.0,40.0,-100.00,South,190,4.0,11.0,72,0.00,,,-99.99,,2013-10-15 00:52:00,
2013-10-14 17:02:00,48.0,40.0,-100.00,South,190,4.0,11.0,72,0.00,,,-99.99,,2013-10-15 01:02:00,
2013-10-14 17:11:00,48.0,40.0,-100.00,South,190,4.0,11.0,72,0.00,,,-99.99,,2013-10-15 01:11:00,
2013-10-14 17:21:00,48.0,40.0,-100.00,South,190,4.0,11.0,72,0.00,,,-99.99,,2013-10-15 01:21:00,
2013-10-14 17:30:00,48.0,39.0,-100.00,SSE,167,9.0,12.0,70,0.00,,,-99.99,,2013-10-15 01:30:00,
2013-10-14 17:52:00,48.0,39.0,-100.00,SSE,167,9.0,12.0,70,0.00,,,-99.99,,2013-10-15 01:52:00,
2013-10-14 18:02:00,48.0,39.0,-100.00,SSE,167,9.0,12.0,70,0.00,,,-99.99,,2013-10-15 02:02:00,
2013-10-14 18:12:00,48.0,39.0,-100.00,SSE,167,9.0,12.0,70,0.00,,,-99.99,,2013-10-15 02:12:00,
2013-10-14 18:22:00,48.0,39.0,-100.00,SSE,167,9.0,12.0,70,0.00,,,-99.99,,2013-10-15 02:22:00,
2013-10-14 18:30:00,48.0,38.0,-100.00,SE,128,8.0,11.0,67,0.00,,,-99.99,,2013-10-15 02:30:00,
2013-10-14 18:52:00,48.0,38.0,-100.00,SE,128,8.0,11.0,67,0.00,,,-99.99,,2013-10-15 02:52:00,
2013-10-14 19:02:00,48.0,38.0,-100.00,SE,128,8.0,11.0,67,0.00,,,-99.99,,2013-10-15 03:02:00,
2013-10-14 19:12:00,48.0,38.0,-100.00,SE,128,8.0,11.0,67,0.00,,,-99.99,,2013-10-15 03:12:00,
2013-10-14 19:22:00,48.0,38.0,-100.00,SE,128,8.0,11.0,67,0.00,,,-99.99,,2013-10-15 03:22:00,
2013-10-14 19:30:00,48.0,40.0,-100.00,SSE,155,12.0,16.0,73,0.00,,,-99.99,,2013-10-15 03:30:00,
2013-10-14 19:55:00,48.0,40.0,-100.00,SSE,155,12.0,16.0,73,0.00,,,-99.99,,2013-10-15 03:55:00,
2013-10-14 20:04:00,48.0,40.0,-100.00,SSE,155,12.0,16.0,73,0.00,,,-99.99,,2013-10-15 04:04:00,
2013-10-14 20:14:00,48.0,40.0,-100.00,SSE,155,12.0,16.0,73,0.00,,,-99.99,,2013-10-15 04:14:00,
2013-10-14 20:24:00,48.0,40.0,-100.00,SSE,155,12.0,16.0,73,0.00,,,-99.99,,2013-10-15 04:24:00,
2013-10-14 20:30:00,48.0,38.0,-100.00,SSE,162,8.0,14.0,68,0.00,,,-99.99,,2013-10-15 04:30:00,
2013-10-14 20:54:00,48.0,38.0,-100.00,SSE,162,8.0,14.0,68,0.00,,,-99.99,,2013-10-15 04:54:00,
2013-10-14 21:03:00,48.0,38.0,-100.00,SSE,162,8.0,14.0,68,0.00,,,-99.99,,2013-10-15 05:03:00,
2013-10-14 21:13:00,48.0,38.0,-100.00,SSE,162,8.0,14.0,68,0.00,,,-99.99,,2013-10-15 05:13:00,
2013-10-14 21:22:00,48.0,38.0,-100.00,SSE,162,8.0,14.0,68,0.00,,,-99.99,,2013-10-15 05:22:00,
2013-10-14 21:30:00,48.0,39.0,-100.00,SSE,167,7.0,14.0,72,0.00,,,-99.99,,2013-10-15 05:30:00,
2013-10-14 21:53:00,48.0,39.0,-100.00,SSE,167,7.0,14.0,72,0.00,,,-99.99,,2013-10-15 05:53:00,
2013-10-14 22:02:00,48.0,39.0,-100.00,SSE,167,7.0,14.0,72,0.00,,,-99.99,,2013-10-15 06:02:00,
2013-10-14 22:12:00,48.0,39.0,-100.00,SSE,167,7.0,14.0,72,0.00,,,-99.99,,2013-10-15 06:12:00,
2013-10-14 22:22:00,48.0,39.0,-100.00,SSE,167,7.0,14.0,72,0.00,,,-99.99,,2013-10-15 06:22:00,
2013-10-14 22:30:00,48.0,39.0,-100.00,South,171,11.0,15.0,69,0.00,,,-99.99,,2013-10-15 06:30:00,
2013-10-14 22:52:00,48.0,39.0,-100.00,South,171,11.0,15.0,69,0.00,,,-99.99,,2013-10-15 06:52:00,
2013-10-14 23:02:00,48.0,39.0,-100.00,South,171,11.0,15.0,69,0.00,,,-99.99,,2013-10-15 07:02:00,
2013-10-14 23:12:00,48.0,39.0,-100.00,South,171,11.0,15.0,69,0.00,,,-99.99,,2013-10-15 07:12:00,
2013-10-14 23:21:00,48.0,39.0,-100.00,South,171,11.0,15.0,69,0.00,,,-99.99,,2013-10-15 07:21:00,
2013-10-14 23:30:00,48.0,39.0,-100.00,South,169,9.0,14.0,70,0.00,,,-99.99,,2013-10-15 07:30:00,
2013-10-14 23:52:00,48.0,39.0,-100.00,South,169,9.0,14.0,70,0.00,,,-99.99,,2013-10-15 07:52:00,